Flag for China Weather past 2 weeks in Changsha, Hunan, China

Now
79 °F

Sunny.


Feels Like: 80 °F
Forecast: 65 / 81 °F
Wind: 13 mph from Northwest

Location: Changsha

Current Time: Apr 2, 2015 at 3:18:14 PM

Latest Report: Apr 2, 2015 at 3:00 PM


Visibility: 10 mi

Pressure: 29.47 "Hg

Humidity: 51%

Dew point: 59 °F

Location of ChangshaLocation

Historic Weather in Changsha — Graph

°F

Changsha temperature yesterday

Maximum temperature yesterday: 88 °F (at 1:00 PM)
Minimum temperature yesterday: 73 °F (at 1:00 AM)
Average temperature yesterday: 81 °F

Past Weeks' High & Low Weather Summary

 TemperatureHumidityPressure
High90 °F (Mar 31, 3:00 PM)94% (Mar 20, 12:00 AM)30.39 "Hg (Mar 20, 12:00 AM)
Low48 °F (Mar 21, 6:00 AM)38% (Mar 25, 4:00 PM)29.47 "Hg (Apr 2, 4:00 AM)
Average62 °F78%30.04 "Hg
* Reported Mar 18 2:00 PM — Apr 2 2:00 PM, Changsha, Weather by CustomWeather, © 2015

Note: Actual official high and low records may vary slightly from our data, if they occured in-between our weather recording intervals... More about our weather records

Advertising

Changsha weather history for previous 24 hours

 ConditionsComfort  
Time TempWeatherWind HumidityBarometerVisibility
2:00 PM
Thu, Apr 2
81 °FClear.8 mph58%29.47 "Hg6 mi
1:00 PM79 °FClear.6 mph54%29.53 "Hg6 mi
12:00 PM73 °FPassing clouds.6 mph61%29.56 "Hg5 mi
11:00 AM70 °FClear.8 mph64%29.59 "Hg5 mi
10:00 AM68 °FClear.8 mph64%29.59 "Hg5 mi
9:00 AM64 °FPassing clouds.10 mph73%29.59 "Hg4 mi
8:00 AM64 °FFog.13 mph78%29.56 "Hg3 mi
7:00 AM75 °FPassing clouds.6 mph69%29.53 "HgN/A
6:00 AM73 °FClear.8 mph74%29.47 "Hg10 mi
5:00 AM73 °FClear.6 mph74%29.47 "Hg10 mi
4:00 AM75 °FClear.10 mph69%29.47 "Hg10 mi
3:00 AM75 °FClear.10 mph69%29.50 "Hg10 mi
2:00 AM75 °FClear.8 mph69%29.53 "Hg10 mi
1:00 AM77 °FClear.10 mph65%29.53 "Hg10 mi
12:00 AM77 °FClear.10 mph65%29.56 "Hg10 mi
11:00 PM
Wed, Apr 1
77 °FClear.3 mph65%29.56 "Hg10 mi
10:00 PM79 °FClear.6 mph61%29.56 "Hg10 mi
9:00 PM82 °FClear.10 mph55%29.53 "Hg10 mi
8:00 PM82 °FClear.15 mph51%29.50 "Hg10 mi
7:00 PM84 °FClear.15 mph51%29.50 "Hg10 mi
6:00 PM86 °FSunny.13 mph49%29.50 "Hg10 mi
5:00 PM86 °FSunny.13 mph49%29.53 "Hg10 mi
4:00 PM88 °FSunny.15 mph43%29.53 "Hg10 mi
3:00 PM88 °FScattered clouds.13 mph43%29.56 "HgN/A
Weather by CustomWeather, © 2015

See weather overviewHow to use our weather pages